METEOSAT-12 (MTG-I1)

Last updated on Wed Oct 29 2025 00:02:22 GMT+0000 (Coordinated Universal Time)

1 54743U 22170C 25301.61479671 .00000005 00000+0 00000+0 0 9990 2 54743 0.7147 31.9755 0001328 139.1527 87.1925 1.00276178 10652
UTC large
Height (km)
Speed (km/s)
/
Latitude / Longitude
Inclination (degrees)
Orbital Period (minutes)
Azimuth
Elevation
Range (km)
Doppler Factor

Next 0 passes for location: London (51.5072 / 0.1276)

Sorry there are no passes over London.